IW4EMA-3 Weather Reports


time (UTC)temp
F
wind
direction
speed
knots
gust
knots
rain 1hr
in
rain 24hr
in
rain mn
in
humidity
%
barometer
mb
20260906095427 86 29 4.3 6.1 0.00 0.00 0.00 66 1021.5
20260906094419 86 349 1.7 1.7 0.00 0.00 0.00 68 1021.5
20260906093427 85 48 3.5 6.1 0.00 0.00 0.00 69 1021.4
20260906092419 86 33 2.6 3.5 0.00 0.00 0.00 67 1021.4
20260906091447 86 41 3.5 5.2 0.00 0.00 0.00 69 1021.5
20260906090418 85 65 1.7 2.6 0.00 0.00 0.00 70 1021.5
20260906085427 85 16 2.6 3.5 0.00 0.00 0.00 70 1021.4
20260906084419 86 79 4.3 5.2 0.00 0.00 0.00 70 1021.5
20260906083427 84 44 3.5 5.2 0.00 0.00 0.00 72 1021.7
20260906082418 84 19 4.3 6.1 0.00 0.00 0.00 72 1021.6
20260906081427 83 29 4.3 7.0 0.00 0.00 0.00 73 1021.5
20260906080419 82 57 3.5 7.8 0.00 0.00 0.00 75 1021.6
20260906075427 82 32 4.3 7.0 0.00 0.00 0.00 73 1021.4
20260906074419 82 19 2.6 3.5 0.00 0.00 0.00 73 1021.3
20260906073427 80 51 4.3 6.1 0.00 0.00 0.00 75 1021.1
20260906072420 80 31 2.6 3.5 0.00 0.00 0.00 76 1021.0
20260906071428 80 33 2.6 5.2 0.00 0.00 0.00 73 1021.0
20260906070419 79 27 2.6 5.2 0.00 0.00 0.00 76 1021.1
20260906065427 78 28 2.6 3.5 0.00 0.00 0.00 77 1020.9
20260906064422 78 40 3.5 3.5 0.00 0.00 0.00 76 1020.9
20260906063427 77 13 2.6 3.5 0.00 0.00 0.00 77 1020.7
20260906062420 77 7 3.5 5.2 0.00 0.00 0.00 76 1020.7
20260906061427 76 11 1.7 1.7 0.00 0.00 0.00 78 1020.6
20260906060419 75 20 0.9 1.7 0.00 0.00 0.00 79 1020.4
20260906055447 75 37 0.9 0.9 0.00 0.00 0.00 80 1020.3
20260906054419 74 26 2.6 3.5 0.00 0.00 0.00 81 1020.3
20260906053427 74 34 1.7 2.6 0.00 0.00 0.00 82 1020.2
20260906052419 74 12 1.7 2.6 0.00 0.00 0.00 83 1020.2
20260906051448 73 2 1.7 2.6 0.00 0.00 0.00 84 1020.1
20260906050420 73 343 1.7 2.6 0.00 0.00 0.00 86 1020.0
20260906045427 73 7 1.7 2.6 0.00 0.00 0.00 88 1019.9
20260906044420 73 344 1.7 1.7 0.00 0.00 0.00 89 1019.9
20260906043428 73 21 1.7 1.7 0.00 0.00 0.00 89 1019.6
20260906042420 73 4 1.7 2.6 0.00 0.00 0.00 90 1019.6
20260906041427 73 24 1.7 3.5 0.00 0.00 0.00 91 1019.6
20260906040440 73 24 2.6 2.6 0.00 0.00 0.00 91 1019.4
20260906035428 73 358 2.6 2.6 0.00 0.00 0.00 92 1019.3
20260906034420 74 48 1.7 1.7 0.00 0.00 0.00 93 1019.3
20260906033428 74 26 2.6 2.6 0.00 0.00 0.00 94 1019.2
20260906032419 74 30 2.6 3.5 0.00 0.00 0.00 94 1019.0
20260906031427 75 23 2.6 3.5 0.00 0.00 0.00 95 1019.0
20260906030440 75 4 1.7 2.6 0.00 0.00 0.00 95 1018.8
20260906025430 75 19 2.6 3.5 0.00 0.00 0.00 94 1019.1
20260906024420 75 30 3.5 5.2 0.00 0.00 0.00 94 1018.7
20260906023428 76 38 2.6 3.5 0.00 0.00 0.00 94 1018.9
20260906022421 76 23 3.5 5.2 0.00 0.00 0.00 93 1018.9
20260906021428 76 353 5.2 7.0 0.00 0.00 0.00 93 1018.7
20260906020440 76 26 5.2 7.0 0.00 0.00 0.00 92 1018.7
20260906015427 76 359 4.3 6.1 0.00 0.00 0.00 92 1018.6
20260906014419 76 33 4.3 6.1 0.00 0.00 0.00 92 1018.7
20260906013428 76 3 5.2 6.1 0.00 0.00 0.00 91 1018.6
20260906012420 76 14 2.6 3.5 0.00 0.00 0.00 91 1018.6
20260906011428 76 27 2.6 3.5 0.00 0.00 0.00 90 1018.6
20260906010419 76 22 3.5 6.1 0.00 0.00 0.00 89 1018.5
20260906005449 76 24 2.6 3.5 0.00 0.00 0.00 89 1018.5
20260906004420 76 41 1.7 2.6 0.00 0.00 0.00 88 1018.5
20260906003428 76 12 1.7 2.6 0.00 0.00 0.00 87 1018.3
20260906002420 76 355 0.9 1.7 0.00 0.00 0.00 87 1018.3
20260906001428 76 6 1.7 1.7 0.00 0.00 0.00 85 1018.4
20260906000420 76 25 1.7 2.6 0.00 0.00 0.00 85 1018.5
20260905235428 76 27 2.6 3.5 0.00 0.00 0.00 85 1018.4
20260905234440 76 29 1.7 2.6 0.00 0.00 0.00 85 1018.4
20260905233428 76 35 0.9 1.7 0.00 0.00 0.00 85 1018.2
20260905232420 76 27 2.6 2.6 0.00 0.00 0.00 85 1018.2
20260905231447 76 39 1.7 1.7 0.00 0.00 0.00 85 1018.2
20260905230420 76 41 2.6 3.5 0.00 0.00 0.00 85 1018.2
20260905225428 77 42 0.0 1.7 0.00 0.00 0.00 85 1018.1
20260905224420 77 51 0.9 1.7 0.00 0.00 0.00 85 1018.1
20260905223428 77 53 0.0 0.9 0.00 0.00 0.00 85 1018.0
20260905222440 77 52 1.7 1.7 0.00 0.00 0.00 84 1017.9
20260905221428 78 31 1.7 2.6 0.00 0.00 0.00 83 1017.7
20260905220420 78 59 0.9 0.9 0.00 0.00 0.00 83 1017.8
20260905215428 78 44 0.9 0.9 0.00 0.00 0.00 83 1017.8
20260905214420 78 61 0.9 1.7 0.00 0.00 0.00 83 1017.8
20260905213428 78 97 0.0 0.9 0.00 0.00 0.00 83 1017.7
20260905212440 78 67 0.9 0.9 0.00 0.00 0.00 83 1017.6
20260905211428 78 74 0.9 1.7 0.00 0.00 0.00 83 1017.5
20260905210440 78 106 3.5 3.5 0.00 0.00 0.00 83 1017.5
20260905205448 79 118 1.7 1.7 0.00 0.00 0.00 83 1017.3
20260905204420 79 121 2.6 3.5 0.00 0.00 0.00 82 1017.2
20260905203427 79 125 0.9 1.7 0.00 0.00 0.00 82 1017.3
20260905202419 79 100 1.7 2.6 0.00 0.00 0.00 82 1017.2
20260905201429 79 81 2.6 3.5 0.00 0.00 0.00 82 1017.1
20260905200420 79 77 2.6 2.6 0.00 0.00 0.00 82 1017.1
20260905195428 79 71 3.5 5.2 0.00 0.00 0.00 82 1017.2
20260905194420 80 84 3.5 5.2 0.00 0.00 0.00 82 1017.0
20260905193429 80 93 3.5 5.2 0.00 0.00 0.00 82 1017.0
20260905192421 80 95 1.7 2.6 0.00 0.00 0.00 81 1017.0
20260905191508 80 91 4.3 7.0 0.00 0.00 0.00 80 1016.8
20260905190420 81 111 3.5 5.2 0.00 0.00 0.00 79 1016.6
20260905185428 81 79 3.5 5.2 0.00 0.00 0.00 77 1016.4
20260905184420 81 48 5.2 7.0 0.00 0.00 0.00 77 1016.3
20260905183428 82 108 3.5 5.2 0.00 0.00 0.00 77 1016.1
20260905182420 83 125 4.3 6.1 0.00 0.00 0.00 74 1016.0
20260905181428 84 114 3.5 5.2 0.00 0.00 0.00 70 1015.8
20260905180421 86 113 4.3 6.1 0.00 0.00 0.00 61 1015.8
20260905175428 88 290 0.9 1.7 0.00 0.00 0.00 47 1015.5
20260905174420 88 0.0 0.0 0.00 0.00 0.00 48 1015.4
20260905173429 89 0.0 0.0 0.00 0.00 0.00 46 1015.3
20260905172420 90 0.0 0.0 0.00 0.00 0.00 44 1015.3
20260905171429 91 275 0.0 0.9 0.00 0.00 0.00 43 1015.2
20260905170420 91 268 0.9 0.9 0.00 0.00 0.00 42 1015.1
20260905165448 92 0.0 0.0 0.00 0.00 0.00 42 1015.0
20260905164441 92 0.0 0.0 0.00 0.00 0.00 41 1015.2
20260905163448 93 267 0.0 0.9 0.00 0.00 0.00 41 1015.0
20260905162420 95 0.0 0.0 0.00 0.00 0.00 38 1014.9
20260905161509 95 0.0 0.0 0.00 0.00 0.00 37 1014.9
20260905160421 96 0.0 0.0 0.00 0.00 0.00 37 1014.9
20260905155429 95 290 0.0 0.9 0.00 0.00 0.00 38 1014.8
20260905154421 96 0.0 0.0 0.00 0.00 0.00 37 1014.7
20260905153449 96 214 1.7 2.6 0.00 0.00 0.00 38 1014.5
20260905152441 96 256 1.7 1.7 0.00 0.00 0.00 38 1014.6
20260905151428 96 240 0.9 1.7 0.00 0.00 0.00 38 1014.8
20260905150420 96 268 0.0 0.9 0.00 0.00 0.00 38 1014.7
20260905145449 96 166 0.9 2.6 0.00 0.00 0.00 38 1014.6
20260905144420 96 219 2.6 3.5 0.00 0.00 0.00 39 1014.9
20260905143428 96 302 1.7 1.7 0.00 0.00 0.00 38 1014.8
20260905142420 93 251 2.6 3.5 0.00 0.00 0.00 41 1014.7
20260905141429 96 224 2.6 3.5 0.00 0.00 0.00 40 1015.0
20260905140421 96 332 1.7 2.6 0.00 0.00 0.00 40 1015.0
20260905135509 95 356 2.6 3.5 0.00 0.00 0.00 41 1015.1
20260905134420 95 321 1.7 2.6 0.00 0.00 0.00 41 1015.1
20260905133429 94 323 3.5 5.2 0.00 0.00 0.00 42 1015.2
20260905132441 95 290 1.7 2.6 0.00 0.00 0.00 42 1015.5
20260905131428 94 199 4.3 7.8 0.00 0.00 0.00 42 1015.3
20260905130420 95 253 2.6 7.0 0.00 0.00 0.00 42 1015.5
20260905125429 94 204 4.3 6.1 0.00 0.00 0.00 43 1015.7
20260905124421 95 315 1.7 2.6 0.00 0.00 0.00 41 1015.9
20260905123445 93 320 0.9 1.7 0.00 0.00 0.00 42 1015.8
20260905122421 95 280 0.0 0.9 0.00 0.00 0.00 41 1016.0
20260905121429 95 241 1.7 5.2 0.00 0.00 0.00 43 1015.7
20260905120421 93 270 0.9 1.7 0.00 0.00 0.00 44 1015.9
20260905115428 94 249 1.7 3.5 0.00 0.00 0.00 43 1016.1
20260905114440 93 328 1.7 1.7 0.00 0.00 0.00 45 1016.3
20260905113428 94 226 1.7 5.2 0.00 0.00 0.00 43 1016.3
20260905112421 93 347 0.9 1.7 0.00 0.00 0.00 43 1016.3
20260905111429 93 284 0.9 1.7 0.00 0.00 0.00 43 1016.3
20260905110421 93 321 3.5 5.2 0.00 0.00 0.00 43 1016.2
20260905105428 92 295 1.7 2.6 0.00 0.00 0.00 44 1016.3
20260905104421 91 296 2.6 3.5 0.00 0.00 0.00 45 1016.5
20260905103429 91 324 1.7 1.7 0.00 0.00 0.00 43 1016.4
20260905102421 93 291 1.7 3.5 0.00 0.00 0.00 45 1016.4
20260905101429 91 293 1.7 1.7 0.00 0.00 0.00 48 1016.4
20260905100421 91 226 2.6 5.2 0.00 0.00 0.00 48 1016.4